Weather History for Asheville, NC

Change the Weather History Date:

Monday, March 4, 2013

  Actual Average Record
Temperature  
Mean Temperature 39 °F 44 °F  
Max Temperature 53 °F 55 °F 79 °F (1976)
Min Temperature 24 °F 33 °F 7 °F (1943)
Degree Days  
Heating Degree Days 26 21  
Month to date heating degree days 123 85  
Since 1 July heating degree days 3064 3302  
Cooling Degree Days 0 0  
Month to date cooling degree days 0 0  
Year to date cooling degree days 0 0  
Moisture  
Dew Point 15 °F    
Average Humidity 42    
Maximum Humidity 63    
Minimum Humidity 21    
Precipitation  
Precipitation 0.00 in 0.11 in 2.20 in (1979)
Month to date precipitation 0.01 0.48  
Year to date precipitation 12.15 7.91  
Snow  
Snow 0.00 in 0.10 in 1.70 in (1925)
Month to date snowfall T 0.3  
Since 1 July snowfall 0.2 7.6  
Snow Depth 0.00 in    
Sea Level Pressure  
Sea Level Pressure 30.06 in    
Wind  
Wind Speed 9 mph (NNW)    
Max Wind Speed 24 mph    
Max Gust Speed 31 mph    
Visibility 10 miles    
Events      
T = Trace of Precipitation, MM = Missing Value Source: NWS Daily Summary

Daily Weather History Graph

Daily Weather History Graph

Search for Another Location

Airport:

Trip Planner

Search our weather history database for the weather conditions in past years. The results will help you decide how hot, cold, wet, or windy it might be!

Date:

Astronomy

Mar. 04, 2013 Rise Set
Actual Time 6:55 AM EST 6:28 PM EST
Civil Twilight 6:30 AM EST 6:53 PM EST
Nautical Twilight 6:00 AM EST 7:23 PM EST
Astronomical Twilight 5:31 AM EST 7:52 PM EST
Moon 12:55 AM EST (3/4) 11:18 AM EST (3/4)
Length of Visible Light 12h 23m
Length of Day
11h 32m
Waning Gibbous, 52% of the Moon is Illuminated
Mar 4
Waning Gibbous
Mar 4
Last Quarter
Mar 11
New
Mar 19
First Quarter
Mar 27
Full

Hourly Weather History & Observations

Time (EST) Temp. Windchill Dew Point Humidity Pressure Visibility Wind Dir Wind Speed Gust Speed Precip Events Conditions
12:54 AM 25.0 °F 11.7 °F 12.0 °F 58% 30.00 in 10.0 mi North 17.3 mph 26.5 mph N/A   Clear
1:54 AM 25.0 °F 11.7 °F 12.0 °F 58% 30.02 in 10.0 mi NNW 17.3 mph 25.3 mph N/A   Clear
2:54 AM 24.1 °F 13.1 °F 12.9 °F 62% 30.03 in 10.0 mi NNW 11.5 mph 18.4 mph N/A   Clear
3:54 AM 25.0 °F 14.2 °F 12.9 °F 60% 30.05 in 10.0 mi NNW 11.5 mph 19.6 mph N/A   Clear
4:54 AM 25.0 °F 14.2 °F 14.0 °F 63% 30.06 in 10.0 mi NNW 11.5 mph - N/A   Clear
5:54 AM 25.0 °F 15.5 °F 14.0 °F 63% 30.09 in 10.0 mi NNW 9.2 mph - N/A   Clear
6:54 AM 24.8 °F 14.6 °F 14.0 °F 64% 30.06 in 10.0 mi NNW 10.4 mph - N/A   Clear
7:54 AM 26.1 °F 14.5 °F 15.1 °F 63% 30.12 in 10.0 mi North 13.8 mph 23.0 mph N/A   Clear
8:54 AM 30.0 °F 18.7 °F 15.1 °F 54% 30.12 in 10.0 mi North 16.1 mph - N/A   Clear
9:54 AM 33.1 °F 24.9 °F 14.0 °F 46% 30.14 in 10.0 mi North 10.4 mph 19.6 mph N/A   Clear
10:54 AM 37.0 °F 28.5 °F 12.0 °F 36% 30.13 in 10.0 mi North 13.8 mph - N/A   Clear
11:54 AM 42.1 °F 37.1 °F 10.9 °F 28% 30.10 in 10.0 mi North 8.1 mph - N/A   Clear
12:54 PM 45.0 °F 40.1 °F 12.0 °F 26% 30.09 in 10.0 mi NNW 9.2 mph 18.4 mph N/A   Clear
1:54 PM 48.0 °F - 12.0 °F 24% 30.04 in 10.0 mi North 4.6 mph - N/A   Clear
2:54 PM 50.0 °F - 12.0 °F 22% 30.03 in 10.0 mi Calm Calm - N/A   Clear
3:54 PM 51.1 °F - 12.9 °F 22% 30.02 in 10.0 mi Calm Calm - N/A   Clear
4:54 PM 51.1 °F - 16.0 °F 25% 30.02 in 10.0 mi South 5.8 mph - N/A   Clear
5:54 PM 48.9 °F - 19.0 °F 31% 30.04 in 10.0 mi SSW 6.9 mph - N/A   Partly Cloudy
6:54 PM 46.9 °F - 19.0 °F 33% 30.05 in 10.0 mi SSW 4.6 mph - N/A   Partly Cloudy
7:54 PM 43.0 °F 41.3 °F 19.9 °F 40% 30.05 in 10.0 mi SSE 3.5 mph - N/A   Partly Cloudy
8:54 PM 42.1 °F - 21.0 °F 43% 30.06 in 10.0 mi Calm Calm - N/A   Clear
9:54 PM 42.1 °F 38.4 °F 21.9 °F 45% 30.06 in 10.0 mi SSE 5.8 mph - N/A   Scattered Clouds
10:54 PM 43.0 °F 38.2 °F 21.9 °F 43% 30.05 in 10.0 mi South 8.1 mph - N/A   Partly Cloudy
11:54 PM 41.0 °F 36.4 °F 23.0 °F 49% 30.04 in 10.0 mi SE 6.9 mph - N/A   Clear